Year,Month,Day,Hour,Minute,Value (Times are PST for temperature in C)
2013,05,24,00,00,8.30
2013,05,24,00,01,8.30
2013,05,24,00,02,8.30
2013,05,24,00,03,8.30
2013,05,24,00,04,8.30
2013,05,24,00,05,8.30
2013,05,24,00,06,8.30
2013,05,24,00,07,8.20
2013,05,24,00,08,8.30
2013,05,24,00,09,8.30
2013,05,24,00,10,8.30
2013,05,24,00,11,8.30
2013,05,24,00,12,8.30
2013,05,24,00,13,8.30
2013,05,24,00,14,8.30
2013,05,24,00,15,8.30
2013,05,24,00,16,8.30
2013,05,24,00,17,8.30
2013,05,24,00,18,8.30
2013,05,24,00,19,8.30
2013,05,24,00,20,8.30
2013,05,24,00,21,8.30
2013,05,24,00,22,8.30
2013,05,24,00,23,8.30
2013,05,24,00,24,8.30
2013,05,24,00,25,8.30
2013,05,24,00,26,8.30
2013,05,24,00,27,8.30
2013,05,24,00,28,8.30
2013,05,24,00,29,8.40
2013,05,24,00,30,8.40
2013,05,24,00,31,8.40
2013,05,24,00,32,8.40
2013,05,24,00,33,8.40
2013,05,24,00,34,8.40
2013,05,24,00,35,8.40
2013,05,24,00,36,8.40
2013,05,24,00,37,8.40
2013,05,24,00,38,8.40
2013,05,24,00,39,8.40
2013,05,24,00,40,8.40
2013,05,24,00,41,8.40
2013,05,24,00,42,8.40
2013,05,24,00,43,8.40
2013,05,24,00,44,8.40
2013,05,24,00,45,8.40
2013,05,24,00,46,8.40
2013,05,24,00,47,8.40
2013,05,24,00,48,8.40
2013,05,24,00,49,8.40
2013,05,24,00,50,8.40
2013,05,24,00,51,8.40
2013,05,24,00,52,8.30
2013,05,24,00,53,8.30
2013,05,24,00,54,8.30
2013,05,24,00,55,8.30
2013,05,24,00,56,8.30
2013,05,24,00,57,8.30
2013,05,24,00,58,8.30
2013,05,24,00,59,8.20
2013,05,24,01,00,8.20
2013,05,24,01,01,8.20
2013,05,24,01,02,8.20
2013,05,24,01,03,8.20
2013,05,24,01,04,8.20
2013,05,24,01,05,8.10
2013,05,24,01,06,8.10
2013,05,24,01,07,8.10
2013,05,24,01,08,8.00
2013,05,24,01,09,8.00
2013,05,24,01,10,8.00
2013,05,24,01,11,7.90
2013,05,24,01,12,7.90
2013,05,24,01,13,7.90
2013,05,24,01,14,7.90
2013,05,24,01,15,7.90
2013,05,24,01,16,7.80
2013,05,24,01,17,7.80
2013,05,24,01,18,7.80
2013,05,24,01,19,7.80
2013,05,24,01,20,7.80
2013,05,24,01,21,7.80
2013,05,24,01,22,7.80
2013,05,24,01,23,7.80
2013,05,24,01,24,7.80
2013,05,24,01,25,7.80
2013,05,24,01,26,7.80
2013,05,24,01,27,7.80
2013,05,24,01,28,7.80
2013,05,24,01,29,7.80
2013,05,24,01,30,7.80
2013,05,24,01,31,7.80
2013,05,24,01,32,7.80
2013,05,24,01,33,7.70
2013,05,24,01,34,7.70
2013,05,24,01,35,7.70
2013,05,24,01,36,7.70
2013,05,24,01,37,7.60
2013,05,24,01,38,7.60
2013,05,24,01,39,7.60
2013,05,24,01,40,7.60
2013,05,24,01,41,7.60
2013,05,24,01,42,7.60
2013,05,24,01,43,7.60
2013,05,24,01,44,7.60
2013,05,24,01,45,7.60
2013,05,24,01,46,7.60
2013,05,24,01,47,7.60
2013,05,24,01,48,7.50
2013,05,24,01,49,7.50
2013,05,24,01,50,7.50
2013,05,24,01,51,7.50
2013,05,24,01,52,7.40
2013,05,24,01,53,7.40
2013,05,24,01,54,7.40
2013,05,24,01,55,7.30
2013,05,24,01,56,7.30
2013,05,24,01,57,7.30
2013,05,24,01,58,7.30
2013,05,24,01,59,7.30
2013,05,24,02,00,7.30
2013,05,24,02,01,7.30
2013,05,24,02,02,7.30
2013,05,24,02,03,7.30
2013,05,24,02,04,7.30
2013,05,24,02,05,7.30
2013,05,24,02,06,7.30
2013,05,24,02,07,7.30
2013,05,24,02,08,7.30
2013,05,24,02,09,7.30
2013,05,24,02,10,7.30
2013,05,24,02,11,7.30
2013,05,24,02,12,7.30
2013,05,24,02,13,7.30
2013,05,24,02,14,7.30
2013,05,24,02,15,7.30
2013,05,24,02,16,7.30
2013,05,24,02,17,7.20
2013,05,24,02,18,7.20
2013,05,24,02,19,7.20
2013,05,24,02,20,7.20
2013,05,24,02,21,7.20
2013,05,24,02,22,7.20
2013,05,24,02,23,7.20
2013,05,24,02,24,7.20
2013,05,24,02,25,7.20
2013,05,24,02,26,7.10
2013,05,24,02,27,7.10
2013,05,24,02,28,7.10
2013,05,24,02,29,7.10
2013,05,24,02,30,7.10
2013,05,24,02,31,7.10
2013,05,24,02,32,7.10
2013,05,24,02,33,7.10
2013,05,24,02,34,7.10
2013,05,24,02,35,7.10
2013,05,24,02,36,7.10
2013,05,24,02,37,7.10
2013,05,24,02,38,7.10
2013,05,24,02,39,7.20
2013,05,24,02,40,7.20
2013,05,24,02,41,7.20
2013,05,24,02,42,7.20
2013,05,24,02,43,7.20
2013,05,24,02,44,7.20
2013,05,24,02,45,7.20
2013,05,24,02,46,7.20
2013,05,24,02,47,7.20
2013,05,24,02,48,7.20
2013,05,24,02,49,7.20
2013,05,24,02,50,7.10
2013,05,24,02,51,7.10
2013,05,24,02,52,7.10
2013,05,24,02,53,7.00
2013,05,24,02,54,7.00
2013,05,24,02,55,7.00
2013,05,24,02,56,7.00
2013,05,24,02,57,7.00
2013,05,24,02,58,7.00
2013,05,24,02,59,6.90
2013,05,24,03,00,6.90
2013,05,24,03,01,6.90
2013,05,24,03,02,6.90
2013,05,24,03,03,6.90
2013,05,24,03,04,6.90
2013,05,24,03,05,6.90
2013,05,24,03,06,6.90
2013,05,24,03,07,6.90
2013,05,24,03,08,6.90
2013,05,24,03,09,6.90
2013,05,24,03,10,6.80
2013,05,24,03,11,6.80
2013,05,24,03,12,6.80
2013,05,24,03,13,6.80
2013,05,24,03,14,6.80
2013,05,24,03,15,6.80
2013,05,24,03,16,6.80
2013,05,24,03,17,6.80
2013,05,24,03,18,6.80
2013,05,24,03,19,6.80
2013,05,24,03,20,6.80
2013,05,24,03,21,6.80
2013,05,24,03,22,6.80
2013,05,24,03,23,6.80
2013,05,24,03,24,6.80
2013,05,24,03,25,6.80
2013,05,24,03,26,6.80
2013,05,24,03,27,6.80
2013,05,24,03,28,6.80
2013,05,24,03,29,6.80
2013,05,24,03,30,6.80
2013,05,24,03,31,6.80
2013,05,24,03,32,6.80
2013,05,24,03,33,6.80
2013,05,24,03,34,6.80
2013,05,24,03,35,6.70
2013,05,24,03,36,6.70
2013,05,24,03,37,6.70
2013,05,24,03,38,6.70
2013,05,24,03,39,6.70
2013,05,24,03,40,6.70
2013,05,24,03,41,6.70
2013,05,24,03,42,6.70
2013,05,24,03,43,6.70
2013,05,24,03,44,6.70
2013,05,24,03,45,6.70
2013,05,24,03,46,6.70
2013,05,24,03,47,6.70
2013,05,24,03,48,6.70
2013,05,24,03,49,6.70
2013,05,24,03,50,6.70
2013,05,24,03,51,6.70
2013,05,24,03,52,6.70
2013,05,24,03,53,6.70
2013,05,24,03,54,6.70
2013,05,24,03,55,6.70
2013,05,24,03,56,6.70
2013,05,24,03,57,6.70
2013,05,24,03,58,6.70
2013,05,24,03,59,6.60
2013,05,24,04,00,6.60
2013,05,24,04,01,6.60
2013,05,24,04,02,6.60
2013,05,24,04,03,6.60
2013,05,24,04,04,6.60
2013,05,24,04,05,6.60
2013,05,24,04,06,6.60
2013,05,24,04,07,6.60
2013,05,24,04,08,6.60
2013,05,24,04,09,6.60
2013,05,24,04,10,6.60
2013,05,24,04,11,6.60
2013,05,24,04,12,6.60
2013,05,24,04,13,6.60
2013,05,24,04,14,6.60
2013,05,24,04,15,6.60
2013,05,24,04,16,6.60
2013,05,24,04,17,6.60
2013,05,24,05,58,6.40
2013,05,24,05,59,6.40
2013,05,24,06,00,6.40
2013,05,24,06,01,6.40
2013,05,24,06,02,6.40
2013,05,24,06,03,6.40
2013,05,24,06,04,6.40
2013,05,24,06,05,6.40
2013,05,24,06,06,6.40
2013,05,24,06,07,6.40
2013,05,24,06,08,6.40
2013,05,24,06,09,6.40
2013,05,24,06,10,6.40
2013,05,24,06,11,6.40
2013,05,24,06,12,6.40
2013,05,24,06,13,6.40
2013,05,24,06,14,6.40
2013,05,24,06,15,6.60
2013,05,24,06,16,6.60
2013,05,24,06,17,6.60
2013,05,24,06,18,6.60
2013,05,24,06,19,6.60
2013,05,24,06,20,6.60
2013,05,24,06,21,6.60
2013,05,24,06,22,6.60
2013,05,24,06,23,6.60
2013,05,24,06,24,6.60
2013,05,24,06,25,6.60
2013,05,24,06,26,6.60
2013,05,24,06,27,6.60
2013,05,24,06,28,6.60
2013,05,24,06,29,6.60
2013,05,24,06,30,6.60
2013,05,24,06,31,6.60
2013,05,24,06,32,6.60
2013,05,24,06,33,6.60
2013,05,24,06,34,6.60
2013,05,24,06,35,6.70
2013,05,24,06,36,6.70
2013,05,24,06,37,6.80
2013,05,24,06,38,6.80
2013,05,24,06,39,6.90
2013,05,24,06,40,6.90
2013,05,24,06,41,7.00
2013,05,24,06,42,7.00
2013,05,24,06,43,7.10
2013,05,24,06,44,7.10
2013,05,24,06,45,7.10
2013,05,24,06,46,7.20
2013,05,24,06,47,7.30
2013,05,24,06,48,7.30
2013,05,24,06,49,7.30
2013,05,24,06,50,7.30
2013,05,24,06,51,7.40
2013,05,24,06,52,7.40
2013,05,24,06,53,7.40
2013,05,24,06,54,7.40
2013,05,24,06,55,7.40
2013,05,24,06,56,7.50
2013,05,24,06,57,7.50
2013,05,24,06,58,7.60
2013,05,24,06,59,7.60
2013,05,24,07,00,7.70
2013,05,24,07,01,7.70
2013,05,24,07,02,7.80
2013,05,24,07,03,7.80
2013,05,24,07,04,7.80
2013,05,24,07,05,7.80
2013,05,24,07,06,7.80
2013,05,24,07,07,7.90
2013,05,24,07,08,7.90
2013,05,24,07,09,8.00
2013,05,24,07,10,8.00
2013,05,24,07,11,8.00
2013,05,24,07,12,8.10
2013,05,24,07,13,8.10
2013,05,24,07,14,8.20
2013,05,24,07,15,8.20
2013,05,24,07,16,8.20
2013,05,24,07,17,8.20
2013,05,24,07,18,8.20
2013,05,24,07,19,8.30
2013,05,24,07,20,8.30
2013,05,24,07,21,8.30
2013,05,24,07,22,8.30
2013,05,24,07,23,8.40
2013,05,24,07,24,8.40
2013,05,24,07,25,8.40
2013,05,24,07,26,8.50
2013,05,24,07,27,8.50
2013,05,24,07,28,8.60
2013,05,24,07,29,8.70
2013,05,24,07,30,8.80
2013,05,24,07,31,8.90
2013,05,24,07,32,9.00
2013,05,24,07,33,9.20
2013,05,24,07,34,9.20
2013,05,24,07,35,9.20
2013,05,24,07,36,9.20
2013,05,24,07,37,9.20
2013,05,24,07,38,9.20
2013,05,24,07,39,9.20
2013,05,24,07,40,9.30
2013,05,24,07,41,9.30
2013,05,24,07,42,9.30
2013,05,24,07,43,9.30
2013,05,24,07,44,9.30
2013,05,24,07,45,9.30
2013,05,24,07,46,9.40
2013,05,24,07,47,9.50
2013,05,24,07,48,9.60
2013,05,24,07,49,9.70
2013,05,24,07,50,9.70
2013,05,24,07,51,9.90
2013,05,24,07,52,9.90
2013,05,24,07,53,9.90
2013,05,24,07,54,9.90
2013,05,24,07,55,9.90
2013,05,24,07,56,9.90
2013,05,24,07,57,9.90
2013,05,24,07,58,9.90
2013,05,24,07,59,9.90
2013,05,24,08,00,9.90
2013,05,24,08,01,9.90
2013,05,24,08,02,9.80
2013,05,24,08,03,9.80
2013,05,24,08,04,9.70
2013,05,24,08,05,9.70
2013,05,24,08,06,9.70
2013,05,24,08,07,9.70
2013,05,24,08,08,9.80
2013,05,24,08,09,9.90
2013,05,24,08,10,9.90
2013,05,24,08,11,9.90
2013,05,24,08,12,9.90
2013,05,24,08,13,10.10
2013,05,24,08,14,10.10
2013,05,24,08,15,10.10
2013,05,24,08,16,10.10
2013,05,24,08,17,10.10
2013,05,24,08,18,10.10
2013,05,24,08,19,10.10
2013,05,24,08,20,9.90
2013,05,24,08,21,9.90
2013,05,24,08,22,9.90
2013,05,24,08,23,9.90
2013,05,24,08,24,9.90
2013,05,24,08,25,9.80
2013,05,24,08,26,9.80
2013,05,24,08,27,9.80
2013,05,24,08,28,9.70
2013,05,24,08,29,9.70
2013,05,24,08,30,9.70
2013,05,24,08,31,9.70
2013,05,24,08,32,9.70
2013,05,24,08,33,9.70
2013,05,24,08,34,9.70
2013,05,24,08,35,9.60
2013,05,24,08,36,9.50
2013,05,24,08,37,9.50
2013,05,24,08,38,9.50
2013,05,24,08,39,9.50
2013,05,24,08,40,9.40
2013,05,24,08,41,9.40
2013,05,24,08,42,9.50
2013,05,24,08,43,9.50
2013,05,24,08,44,9.50
2013,05,24,08,45,9.50
2013,05,24,08,46,9.50
2013,05,24,08,47,9.50
2013,05,24,08,48,9.60
2013,05,24,08,49,9.60
2013,05,24,08,50,9.70
2013,05,24,08,51,9.70
2013,05,24,08,52,9.70
2013,05,24,08,53,9.70
2013,05,24,08,54,9.80
2013,05,24,08,55,9.80
2013,05,24,08,56,9.90
2013,05,24,08,57,9.90
2013,05,24,08,58,9.90
2013,05,24,08,59,10.10
2013,05,24,09,00,10.10
2013,05,24,09,01,10.10
2013,05,24,09,02,10.10
2013,05,24,09,03,10.20
2013,05,24,09,04,10.20
2013,05,24,09,05,10.30
2013,05,24,09,06,10.30
2013,05,24,09,07,10.40
2013,05,24,09,08,10.40
2013,05,24,09,09,10.60
2013,05,24,09,10,10.60
2013,05,24,09,11,10.70
2013,05,24,09,12,10.80
2013,05,24,09,13,10.90
2013,05,24,09,14,10.90
2013,05,24,09,15,10.90
2013,05,24,09,16,10.90
2013,05,24,09,17,10.90
2013,05,24,09,18,10.90
2013,05,24,09,19,10.90
2013,05,24,09,20,10.90
2013,05,24,09,21,10.90
2013,05,24,09,22,10.90
2013,05,24,09,23,10.90
2013,05,24,09,24,10.90
2013,05,24,09,25,10.90
2013,05,24,09,26,10.90
2013,05,24,09,27,10.90
2013,05,24,09,28,11.10
2013,05,24,09,29,11.10
2013,05,24,09,30,11.10
2013,05,24,09,31,11.20
2013,05,24,09,32,11.30
2013,05,24,09,33,11.40
2013,05,24,09,34,11.40
2013,05,24,09,35,11.60
2013,05,24,09,36,11.60
2013,05,24,09,37,11.60
2013,05,24,09,38,11.70
2013,05,24,09,39,11.80
2013,05,24,09,40,11.80
2013,05,24,09,41,11.90
2013,05,24,09,42,11.90
2013,05,24,09,43,12.00
2013,05,24,09,44,12.10
2013,05,24,09,45,12.10
2013,05,24,09,46,12.00
2013,05,24,09,47,12.00
2013,05,24,09,48,12.00
2013,05,24,09,49,12.00
2013,05,24,09,50,12.00
2013,05,24,09,51,12.10
2013,05,24,09,52,12.20
2013,05,24,09,53,12.30
2013,05,24,09,54,12.30
2013,05,24,09,55,12.40
2013,05,24,09,56,12.50
2013,05,24,09,57,12.60
2013,05,24,09,58,12.70
2013,05,24,09,59,12.80
2013,05,24,10,00,12.80
2013,05,24,10,01,12.80
2013,05,24,10,02,12.90
2013,05,24,10,03,13.00
2013,05,24,10,04,13.00
2013,05,24,10,05,13.10
2013,05,24,10,06,13.10
2013,05,24,10,07,13.10
2013,05,24,10,08,13.00
2013,05,24,10,09,12.90
2013,05,24,10,10,12.90
2013,05,24,10,11,12.90
2013,05,24,10,12,12.80
2013,05,24,10,13,12.80
2013,05,24,10,14,12.80
2013,05,24,10,15,12.80
2013,05,24,10,16,12.80
2013,05,24,10,17,12.80
2013,05,24,10,18,12.80
2013,05,24,10,19,12.80
2013,05,24,10,20,12.80
2013,05,24,10,21,12.90
2013,05,24,10,22,12.90
2013,05,24,10,23,12.90
2013,05,24,10,24,12.90
2013,05,24,10,25,12.90
2013,05,24,10,26,12.90
2013,05,24,10,27,12.90
2013,05,24,10,28,12.90
2013,05,24,10,29,12.90
2013,05,24,10,30,12.90
2013,05,24,10,31,12.90
2013,05,24,10,32,13.00
2013,05,24,10,33,13.10
2013,05,24,10,34,13.20
2013,05,24,10,35,13.20
2013,05,24,10,36,13.30
2013,05,24,10,37,13.40
2013,05,24,10,38,13.60
2013,05,24,10,39,13.70
2013,05,24,10,40,13.90
2013,05,24,10,41,14.10
2013,05,24,10,42,14.20
2013,05,24,10,43,14.40
2013,05,24,10,44,14.60
2013,05,24,10,45,14.70
2013,05,24,10,46,14.80
2013,05,24,10,47,14.80
2013,05,24,10,48,15.00
2013,05,24,10,49,15.00
2013,05,24,10,50,15.10
2013,05,24,10,51,15.20
2013,05,24,10,52,15.30
2013,05,24,10,53,15.40
2013,05,24,10,54,15.60
2013,05,24,10,55,15.70
2013,05,24,10,56,15.80
2013,05,24,10,57,15.80
2013,05,24,10,58,15.90
2013,05,24,10,59,16.10
2013,05,24,11,00,16.20
2013,05,24,11,01,16.20
2013,05,24,11,02,16.30
2013,05,24,11,03,16.30
2013,05,24,11,04,16.40
2013,05,24,11,05,16.40
2013,05,24,11,06,16.40
2013,05,24,11,07,16.40
2013,05,24,11,08,16.40
2013,05,24,11,09,16.40
2013,05,24,11,10,16.40
2013,05,24,11,11,16.40
2013,05,24,11,12,16.40
2013,05,24,11,13,16.30
2013,05,24,11,14,16.10
2013,05,24,11,15,15.80
2013,05,24,11,16,15.70
2013,05,24,11,17,15.50
2013,05,24,11,18,15.30
2013,05,24,11,19,15.30
2013,05,24,11,20,15.20
2013,05,24,11,21,15.10
2013,05,24,11,22,15.10
2013,05,24,11,23,15.00
2013,05,24,11,24,14.90
2013,05,24,11,25,14.80
2013,05,24,11,26,14.80
2013,05,24,11,27,14.80
2013,05,24,11,28,14.80
2013,05,24,11,29,14.90
2013,05,24,11,30,14.90
2013,05,24,11,31,15.00
2013,05,24,11,32,15.00
2013,05,24,11,33,15.00
2013,05,24,11,34,15.00
2013,05,24,11,35,14.90
2013,05,24,11,36,14.90
2013,05,24,11,37,14.80
2013,05,24,11,38,14.80
2013,05,24,11,39,14.80
2013,05,24,11,40,14.90
2013,05,24,11,41,14.90
2013,05,24,11,42,14.90
2013,05,24,11,43,15.00
2013,05,24,11,44,15.20
2013,05,24,11,45,15.30
2013,05,24,11,46,15.40
2013,05,24,11,47,15.60
2013,05,24,11,48,15.80
2013,05,24,11,49,15.80
2013,05,24,11,50,15.80
2013,05,24,11,51,15.90
2013,05,24,11,52,16.10
2013,05,24,11,53,16.10
2013,05,24,11,54,15.90
2013,05,24,11,55,15.80
2013,05,24,11,56,15.70
2013,05,24,11,57,15.50
2013,05,24,11,58,15.30
2013,05,24,11,59,15.30
2013,05,24,12,00,15.20
2013,05,24,12,01,15.30
2013,05,24,12,02,15.30
2013,05,24,12,03,15.40
2013,05,24,12,04,15.50
2013,05,24,12,05,15.70
2013,05,24,12,06,15.80
2013,05,24,12,07,15.80
2013,05,24,12,08,15.80
2013,05,24,12,09,15.80
2013,05,24,12,10,15.80
2013,05,24,12,11,15.80
2013,05,24,12,12,15.80
2013,05,24,12,13,15.80
2013,05,24,12,14,15.90
2013,05,24,12,15,16.10
2013,05,24,12,16,16.10
2013,05,24,12,17,16.10
2013,05,24,12,18,16.10
2013,05,24,12,19,15.90
2013,05,24,12,20,15.80
2013,05,24,12,21,15.80
2013,05,24,12,22,15.90
2013,05,24,12,23,15.90
2013,05,24,12,24,16.10
2013,05,24,12,25,16.10
2013,05,24,12,26,16.10
2013,05,24,12,27,16.10
2013,05,24,12,28,16.10
2013,05,24,12,29,16.20
2013,05,24,12,30,16.20
2013,05,24,12,31,16.20
2013,05,24,12,32,16.20
2013,05,24,12,33,16.10
2013,05,24,12,34,16.10
2013,05,24,12,35,15.90
2013,05,24,12,36,15.90
2013,05,24,12,37,15.80
2013,05,24,12,38,15.80
2013,05,24,12,39,15.80
2013,05,24,12,40,15.80
2013,05,24,12,41,15.80
2013,05,24,12,42,15.80
2013,05,24,12,43,15.80
2013,05,24,12,44,15.80
2013,05,24,12,45,15.80
2013,05,24,12,46,15.80
2013,05,24,12,47,15.80
2013,05,24,12,48,15.80
2013,05,24,12,49,15.80
2013,05,24,12,50,15.80
2013,05,24,12,51,15.80
2013,05,24,12,52,15.80
2013,05,24,12,53,15.80
2013,05,24,12,54,15.80
2013,05,24,12,55,15.70
2013,05,24,12,56,15.60
2013,05,24,12,57,15.60
2013,05,24,12,58,15.60
2013,05,24,12,59,15.60
2013,05,24,13,00,15.50
2013,05,24,13,01,15.50
2013,05,24,13,02,15.50
2013,05,24,13,03,15.50
2013,05,24,13,04,15.50
2013,05,24,13,05,15.50
2013,05,24,13,06,15.50
2013,05,24,13,07,15.50
2013,05,24,13,08,15.50
2013,05,24,13,09,15.60
2013,05,24,13,10,15.60
2013,05,24,13,11,15.70
2013,05,24,13,12,15.70
2013,05,24,13,13,15.80
2013,05,24,13,14,15.80
2013,05,24,13,15,15.80
2013,05,24,13,16,15.80
2013,05,24,13,17,15.80
2013,05,24,13,18,15.80
2013,05,24,13,19,15.80
2013,05,24,13,20,15.80
2013,05,24,13,21,15.80
2013,05,24,13,22,15.80
2013,05,24,13,23,15.80
2013,05,24,13,24,15.80
2013,05,24,13,25,15.90
2013,05,24,13,26,16.10
2013,05,24,13,27,16.30
2013,05,24,13,28,16.40
2013,05,24,13,29,16.60
2013,05,24,13,30,16.70
2013,05,24,13,31,16.90
2013,05,24,13,32,17.10
2013,05,24,13,33,17.10
2013,05,24,13,34,17.20
2013,05,24,13,35,17.30
2013,05,24,13,36,17.30
2013,05,24,13,37,17.30
2013,05,24,13,38,17.40
2013,05,24,13,39,17.40
2013,05,24,13,40,17.40
2013,05,24,13,41,17.40
2013,05,24,13,42,17.40
2013,05,24,13,43,17.40
2013,05,24,13,44,17.50
2013,05,24,13,45,17.50
2013,05,24,13,46,17.60
2013,05,24,13,47,17.70
2013,05,24,13,48,17.70
2013,05,24,13,49,17.70
2013,05,24,13,50,17.60
2013,05,24,13,51,17.50
2013,05,24,13,52,17.50
2013,05,24,13,53,17.30
2013,05,24,13,54,17.30
2013,05,24,13,55,17.20
2013,05,24,13,56,17.20
2013,05,24,13,57,17.20
2013,05,24,13,58,17.20
2013,05,24,13,59,17.20
2013,05,24,14,00,17.20
2013,05,24,14,01,17.20
2013,05,24,14,02,17.20
2013,05,24,14,03,17.20
2013,05,24,14,04,17.20
2013,05,24,14,05,17.20
2013,05,24,14,06,17.20
2013,05,24,14,07,17.30
2013,05,24,14,08,17.30
2013,05,24,14,09,17.30
2013,05,24,14,10,17.40
2013,05,24,14,11,17.40
2013,05,24,14,12,17.40
2013,05,24,14,13,17.40
2013,05,24,14,14,17.30
2013,05,24,14,15,17.30
2013,05,24,14,16,17.20
2013,05,24,14,17,17.20
2013,05,24,14,18,17.10
2013,05,24,14,19,17.00
2013,05,24,14,20,17.00
2013,05,24,14,21,17.00
2013,05,24,14,22,17.00
2013,05,24,14,23,17.00
2013,05,24,14,24,16.90
2013,05,24,14,25,16.90
2013,05,24,14,26,16.90
2013,05,24,14,27,16.90
2013,05,24,14,28,16.90
2013,05,24,14,29,16.90
2013,05,24,14,30,16.90
2013,05,24,14,31,16.90
2013,05,24,14,32,16.90
2013,05,24,14,33,16.90
2013,05,24,14,34,16.90
2013,05,24,14,35,17.00
2013,05,24,14,36,17.00
2013,05,24,14,37,17.10
2013,05,24,14,38,17.10
2013,05,24,14,39,17.10
2013,05,24,14,40,17.20
2013,05,24,14,41,17.20
2013,05,24,14,42,17.20
2013,05,24,14,43,17.20
2013,05,24,14,44,17.20
2013,05,24,14,45,17.20
2013,05,24,14,46,17.20
2013,05,24,14,47,17.20
2013,05,24,14,48,17.20
2013,05,24,14,49,17.30
2013,05,24,14,50,17.30
2013,05,24,14,51,17.30
2013,05,24,14,52,17.30
2013,05,24,14,53,17.30
2013,05,24,14,54,17.30
2013,05,24,14,55,17.30
2013,05,24,14,56,17.40
2013,05,24,14,57,17.40
2013,05,24,14,58,17.30
2013,05,24,14,59,17.30
2013,05,24,15,00,17.30
2013,05,24,15,01,17.30
2013,05,24,15,02,17.30
2013,05,24,15,03,17.30
2013,05,24,15,04,17.30
2013,05,24,15,05,17.30
2013,05,24,15,06,17.20
2013,05,24,15,07,17.00
2013,05,24,15,08,17.00
2013,05,24,15,09,16.90
2013,05,24,15,10,16.80
2013,05,24,15,11,16.70
2013,05,24,15,12,16.70
2013,05,24,15,13,16.70
2013,05,24,15,14,16.70
2013,05,24,15,15,16.80
2013,05,24,15,16,16.80
2013,05,24,15,17,16.70
2013,05,24,15,18,16.60
2013,05,24,15,19,16.40
2013,05,24,15,20,16.20
2013,05,24,15,21,16.10
2013,05,24,15,22,15.90
2013,05,24,15,23,15.80
2013,05,24,15,24,15.80
2013,05,24,15,25,15.80
2013,05,24,15,26,15.80
2013,05,24,15,27,15.70
2013,05,24,15,28,15.80
2013,05,24,15,29,15.80
2013,05,24,15,30,15.80
2013,05,24,15,31,15.90
2013,05,24,15,32,16.10
2013,05,24,15,33,16.10
2013,05,24,15,34,16.10
2013,05,24,15,35,16.20
2013,05,24,15,36,16.20
2013,05,24,15,37,16.20
2013,05,24,15,38,16.30
2013,05,24,15,39,16.30
2013,05,24,15,40,16.40
2013,05,24,15,41,16.40
2013,05,24,15,42,16.40
2013,05,24,15,43,16.40
2013,05,24,15,44,16.40
2013,05,24,15,45,16.40
2013,05,24,15,46,16.40
2013,05,24,15,47,16.40
2013,05,24,15,48,16.40
2013,05,24,15,49,16.60
2013,05,24,15,50,16.60
2013,05,24,15,51,16.60
2013,05,24,15,52,16.60
2013,05,24,15,53,16.40
2013,05,24,15,54,16.40
2013,05,24,15,55,16.30
2013,05,24,15,56,16.20
2013,05,24,15,57,16.20
2013,05,24,15,58,16.10
2013,05,24,15,59,16.10
2013,05,24,16,00,16.10
2013,05,24,16,01,16.10
2013,05,24,16,02,16.20
2013,05,24,16,03,16.30
2013,05,24,16,04,16.30
2013,05,24,16,05,16.40
2013,05,24,16,06,16.40
2013,05,24,16,07,16.40
2013,05,24,16,08,16.40
2013,05,24,16,09,16.60
2013,05,24,16,10,16.60
2013,05,24,16,11,16.60
2013,05,24,16,12,16.70
2013,05,24,16,13,16.70
2013,05,24,16,14,16.70
2013,05,24,16,15,16.80
2013,05,24,16,16,16.90
2013,05,24,16,17,16.80
2013,05,24,16,18,16.70
2013,05,24,16,19,16.70
2013,05,24,16,20,16.70
2013,05,24,16,21,16.70
2013,05,24,16,22,16.70
2013,05,24,16,23,16.70
2013,05,24,16,24,16.70
2013,05,24,16,25,16.70
2013,05,24,16,26,16.60
2013,05,24,16,27,16.60
2013,05,24,16,28,16.40
2013,05,24,16,29,16.40
2013,05,24,16,30,16.40
2013,05,24,16,31,16.30
2013,05,24,16,32,16.30
2013,05,24,16,33,16.40
2013,05,24,16,34,16.40
2013,05,24,16,35,16.40
2013,05,24,16,36,16.40
2013,05,24,16,37,16.60
2013,05,24,16,38,16.70
2013,05,24,16,39,16.70
2013,05,24,16,40,16.60
2013,05,24,16,41,16.40
2013,05,24,16,42,16.40
2013,05,24,16,43,16.30
2013,05,24,16,44,16.20
2013,05,24,16,45,16.10
2013,05,24,16,46,16.10
2013,05,24,16,47,16.10
2013,05,24,16,48,15.90
2013,05,24,16,49,15.80
2013,05,24,16,50,15.80
2013,05,24,16,51,15.80
2013,05,24,16,52,15.80
2013,05,24,16,53,15.80
2013,05,24,16,54,15.80
2013,05,24,16,55,15.80
2013,05,24,16,56,15.80
2013,05,24,16,57,15.80
2013,05,24,16,58,15.80
2013,05,24,16,59,15.80
2013,05,24,17,00,15.80
2013,05,24,17,01,15.80
2013,05,24,17,02,15.80
2013,05,24,17,03,15.80
2013,05,24,17,04,15.70
2013,05,24,17,05,15.70
2013,05,24,17,06,15.60
2013,05,24,17,07,15.70
2013,05,24,17,08,15.80
2013,05,24,17,09,15.80
2013,05,24,17,10,15.90
2013,05,24,17,11,16.10
2013,05,24,17,12,16.10
2013,05,24,17,13,16.30
2013,05,24,17,14,16.40
2013,05,24,17,15,16.40
2013,05,24,17,16,16.40
2013,05,24,17,17,16.40
2013,05,24,17,18,16.30
2013,05,24,17,19,16.20
2013,05,24,17,20,16.10
2013,05,24,17,21,16.10
2013,05,24,17,22,16.10
2013,05,24,17,23,16.10
2013,05,24,17,24,16.10
2013,05,24,17,25,16.10
2013,05,24,17,26,16.10
2013,05,24,17,27,16.10
2013,05,24,17,28,16.20
2013,05,24,17,29,16.30
2013,05,24,17,30,16.40
2013,05,24,17,31,16.40
2013,05,24,17,32,16.40
2013,05,24,17,33,16.40
2013,05,24,17,34,16.60
2013,05,24,17,35,16.70
2013,05,24,17,36,16.70
2013,05,24,17,37,16.70
2013,05,24,17,38,16.70
2013,05,24,17,39,16.60
2013,05,24,17,40,16.40
2013,05,24,17,41,16.40
2013,05,24,17,42,16.40
2013,05,24,17,43,16.30
2013,05,24,17,44,16.20
2013,05,24,17,45,16.10
2013,05,24,17,46,16.10
2013,05,24,17,47,16.10
2013,05,24,17,48,15.90
2013,05,24,17,49,15.90
2013,05,24,17,50,15.80
2013,05,24,17,51,15.80
2013,05,24,17,52,15.80
2013,05,24,17,53,15.70
2013,05,24,17,54,15.60
2013,05,24,17,55,15.50
2013,05,24,17,56,15.30
2013,05,24,17,57,15.30
2013,05,24,17,58,15.20
2013,05,24,17,59,15.10
2013,05,24,18,00,15.10
2013,05,24,18,01,15.00
2013,05,24,18,02,15.00
2013,05,24,18,03,14.90
2013,05,24,18,04,14.90
2013,05,24,18,05,14.90
2013,05,24,18,06,14.90
2013,05,24,18,07,14.90
2013,05,24,18,08,14.90
2013,05,24,18,09,14.90
2013,05,24,18,10,14.90
2013,05,24,18,11,14.90
2013,05,24,18,12,14.90
2013,05,24,18,13,15.00
2013,05,24,18,14,15.00
2013,05,24,18,15,14.90
2013,05,24,18,16,14.90
2013,05,24,18,17,14.80
2013,05,24,18,18,14.80
2013,05,24,18,19,14.80
2013,05,24,18,20,14.80
2013,05,24,18,21,14.80
2013,05,24,18,22,14.80
2013,05,24,18,23,14.70
2013,05,24,18,24,14.60
2013,05,24,18,25,14.60
2013,05,24,18,26,14.60
2013,05,24,18,27,14.60
2013,05,24,18,28,14.60
2013,05,24,18,29,14.60
2013,05,24,18,30,14.60
2013,05,24,18,31,14.60
2013,05,24,18,32,14.50
2013,05,24,18,33,14.50
2013,05,24,18,34,14.50
2013,05,24,18,35,14.40
2013,05,24,18,36,14.40
2013,05,24,18,37,14.30
2013,05,24,18,38,14.30
2013,05,24,18,39,14.30
2013,05,24,18,40,14.30
2013,05,24,18,41,14.30
2013,05,24,18,42,14.30
2013,05,24,18,43,14.30
2013,05,24,18,44,14.20
2013,05,24,18,45,14.20
2013,05,24,18,46,14.20
2013,05,24,18,47,14.20
2013,05,24,18,48,14.20
2013,05,24,18,49,14.20
2013,05,24,18,50,14.20
2013,05,24,18,51,14.20
2013,05,24,18,52,14.20
2013,05,24,18,53,14.20
2013,05,24,18,54,14.20
2013,05,24,18,55,14.10
2013,05,24,18,56,14.10
2013,05,24,18,57,14.10
2013,05,24,18,58,14.10
2013,05,24,18,59,14.10
2013,05,24,19,00,14.00
2013,05,24,19,01,14.00
2013,05,24,19,02,14.00
2013,05,24,19,03,14.00
2013,05,24,19,04,14.00
2013,05,24,19,05,14.00
2013,05,24,19,06,14.00
2013,05,24,19,07,14.00
2013,05,24,19,08,14.00
2013,05,24,19,09,14.00
2013,05,24,19,10,13.90
2013,05,24,19,11,13.90
2013,05,24,19,12,13.90
2013,05,24,19,13,13.90
2013,05,24,19,14,13.80
2013,05,24,19,15,13.80
2013,05,24,19,16,13.80
2013,05,24,19,17,13.80
2013,05,24,19,18,13.80